EN

Hourly Weather Bystryanka

Today, 20 April, Tuesday

Time Temperature Precipitation Wind Pressure Humidity
00:00 -7°C° 0 mm 1 mps 746 mmHg 92%
01:00 -7°C° 0 mm 1 mps 746 mmHg 92%
02:00 -8°C° 0 mm 1 mps 746 mmHg 93%
03:00 -8°C° 0 mm 1 mps 746 mmHg 93%
04:00 -8°C° 0 mm 0 mps 746 mmHg 92%
05:00 -8°C° 0 mm 0 mps 746 mmHg 91%
06:00 -8°C° 0 mm 0 mps 747 mmHg 91%
07:00 -7°C° 0 mm 1 mps 747 mmHg 87%
08:00 -6°C° 0 mm 1 mps 747 mmHg 83%
09:00 -6°C° 0 mm 2 mps 747 mmHg 79%
10:00 -6°C° 0 mm 2 mps 748 mmHg 77%
11:00 -6°C° 0 mm 3 mps 748 mmHg 74%
12:00 -6°C° 0 mm 3 mps 748 mmHg 72%
13:00 -6°C° 0 mm 3 mps 748 mmHg 70%
14:00 -6°C° 0 mm 3 mps 748 mmHg 67%
15:00 -5°C° 0 mm 3 mps 748 mmHg 65%
16:00 -5°C° 0 mm 2 mps 748 mmHg 70%
17:00 -3°C° 0 mm 1 mps 748 mmHg 74%
18:00 -4°C° 0 mm 1 mps 748 mmHg 79%
19:00 -7°C° 0 mm 1 mps 748 mmHg 82%
20:00 -8°C° 0 mm 1 mps 748 mmHg 85%
21:00 -10°C° 0 mm 0 mps 749 mmHg 88%
22:00 -10°C° 0 mm 0 mps 749 mmHg 89%
23:00 -11°C° 0 mm 1 mps 749 mmHg 89%

Tomorrow, 21 April, Wednesday

Time Temperature Precipitation Wind Pressure Humidity
00:00 -11°C° 0 mm 1 mps 749 mmHg 90%
01:00 -11°C° 0 mm 1 mps 748 mmHg 90%
02:00 -11°C° 0 mm 1 mps 748 mmHg 91%
03:00 -11°C° 0 mm 1 mps 748 mmHg 91%
04:00 -11°C° 0 mm 1 mps 748 mmHg 91%
05:00 -11°C° 0 mm 1 mps 748 mmHg 91%
06:00 -11°C° 0 mm 1 mps 748 mmHg 91%
07:00 -9°C° 0 mm 1 mps 748 mmHg 86%
08:00 -7°C° 0 mm 0 mps 748 mmHg 81%
09:00 -5°C° 0 mm 0 mps 747 mmHg 77%
10:00 -3°C° 0 mm 1 mps 747 mmHg 76%
11:00 -3°C° 0 mm 1 mps 747 mmHg 74%
12:00 -2°C° 0 mm 1 mps 747 mmHg 73%
13:00 -1°C° 0 mm 1 mps 746 mmHg 73%
14:00 -1°C° 0 mm 1 mps 746 mmHg 74%
15:00 -2°C° 0 mm 2 mps 746 mmHg 74%
16:00 -3°C° 0 mm 2 mps 747 mmHg 77%
17:00 -1°C° 0 mm 1 mps 747 mmHg 80%
18:00 -1°C° 0 mm 1 mps 747 mmHg 83%
19:00 -2°C° 0 mm 1 mps 748 mmHg 86%
20:00 -3°C° 0 mm 1 mps 748 mmHg 89%
21:00 -5°C° 0 mm 0 mps 748 mmHg 91%
22:00 -5°C° 0 mm 0 mps 749 mmHg 92%
23:00 -6°C° 0 mm 0 mps 749 mmHg 92%

Day after tomorrow, 22 April, Thursday

Time Temperature Precipitation Wind Pressure Humidity
00:00 -6°C° 0 mm 0 mps 749 mmHg 93%
01:00 -6°C° 0 mm 0 mps 749 mmHg 92%
02:00 -6°C° 0 mm 0 mps 749 mmHg 92%
03:00 -6°C° 0 mm 0 mps 750 mmHg 92%
04:00 -5°C° 0 mm 0 mps 750 mmHg 91%
05:00 -5°C° 0 mm 0 mps 751 mmHg 90%
06:00 -5°C° 0 mm 0 mps 751 mmHg 89%
07:00 -3°C° 0 mm 1 mps 752 mmHg 84%
08:00 -2°C° 0 mm 1 mps 752 mmHg 79%
09:00 -1°C° 0 mm 1 mps 753 mmHg 75%
10:00 -2°C° 0 mm 2 mps 753 mmHg 75%
11:00 -2°C° 0 mm 2 mps 754 mmHg 75%
12:00 -1°C° 0 mm 2 mps 754 mmHg 76%
13:00 +1°C° 0 mm 2 mps 754 mmHg 76%
14:00 +1°C° 0 mm 2 mps 755 mmHg 76%
15:00 0°C° 0 mm 3 mps 755 mmHg 76%
16:00 +1°C° 0 mm 2 mps 755 mmHg 78%
17:00 +1°C° 0 mm 2 mps 755 mmHg 79%
18:00 +1°C° 0 mm 2 mps 756 mmHg 80%
19:00 -1°C° 0 mm 2 mps 756 mmHg 82%
20:00 -2°C° 0 mm 2 mps 757 mmHg 84%
21:00 -3°C° 0 mm 2 mps 757 mmHg 86%
22:00 -3°C° 0 mm 2 mps 757 mmHg 87%
23:00 -4°C° 0 mm 2 mps 757 mmHg 87%

23 April, Friday

Time Temperature Precipitation Wind Pressure Humidity
00:00 -4°C° 0 mm 2 mps 757 mmHg 88%
01:00 -3°C° 0 mm 1 mps 757 mmHg 90%
02:00 -3°C° 0 mm 1 mps 757 mmHg 91%
03:00 -4°C° 0 mm 1 mps 757 mmHg 92%
04:00 -4°C° 0 mm 1 mps 757 mmHg 92%
05:00 -3°C° 0 mm 1 mps 757 mmHg 91%
06:00 -3°C° 0 mm 1 mps 757 mmHg 91%
07:00 -2°C° 0 mm 1 mps 758 mmHg 86%
08:00 -3°C° 0 mm 2 mps 758 mmHg 82%
09:00 -1°C° 0 mm 2 mps 758 mmHg 78%
10:00 -1°C° 0 mm 2 mps 758 mmHg 77%
11:00 +1°C° 0 mm 2 mps 757 mmHg 77%
12:00 +2°C° 0 mm 2 mps 757 mmHg 77%
13:00 +2°C° 0.1 mm 2 mps 757 mmHg 76%
14:00 +3°C° 0.1 mm 2 mps 757 mmHg 75%
15:00 +3°C° 0.1 mm 2 mps 756 mmHg 74%
16:00 +3°C° 0.1 mm 2 mps 756 mmHg 79%
17:00 +2°C° 0.1 mm 2 mps 756 mmHg 83%
18:00 +3°C° 0.1 mm 1 mps 756 mmHg 87%
19:00 +2°C° 0.2 mm 1 mps 757 mmHg 90%
20:00 +2°C° 0.2 mm 1 mps 757 mmHg 94%
21:00 +1°C° 0.2 mm 1 mps 757 mmHg 97%
22:00 -1°C° 0.1 mm 2 mps 756 mmHg 97%
23:00 -1°C° 0.1 mm 2 mps 756 mmHg 97%

24 April, Saturday

Time Temperature Precipitation Wind Pressure Humidity
00:00 -1°C° 0.1 mm 2 mps 756 mmHg 97%
01:00 -1°C° 0.1 mm 2 mps 756 mmHg 97%
02:00 -2°C° 0.1 mm 2 mps 755 mmHg 97%
03:00 0°C° 0.1 mm 1 mps 755 mmHg 96%
04:00 -2°C° 0.1 mm 2 mps 755 mmHg 95%
05:00 -2°C° 0.1 mm 2 mps 755 mmHg 95%
06:00 -2°C° 0.1 mm 2 mps 755 mmHg 94%
07:00 -1°C° 0.1 mm 2 mps 755 mmHg 92%
08:00 +1°C° 0.1 mm 2 mps 755 mmHg 91%
09:00 0°C° 0.1 mm 3 mps 755 mmHg 89%
10:00 +1°C° 0.1 mm 3 mps 754 mmHg 85%
11:00 +2°C° 0.1 mm 3 mps 754 mmHg 82%
12:00 +2°C° 0.1 mm 3 mps 754 mmHg 78%
13:00 +3°C° 0.1 mm 3 mps 754 mmHg 76%
14:00 +3°C° 0.1 mm 3 mps 754 mmHg 75%
15:00 +3°C° 0.1 mm 3 mps 753 mmHg 73%
16:00 +4°C° 0.1 mm 2 mps 753 mmHg 77%
17:00 +4°C° 0.1 mm 2 mps 753 mmHg 82%
18:00 +3°C° 0.1 mm 2 mps 753 mmHg 86%
19:00 +2°C° 0 mm 2 mps 753 mmHg 87%
20:00 +3°C° 0 mm 1 mps 753 mmHg 88%
21:00 +2°C° 0 mm 1 mps 753 mmHg 89%
22:00 +2°C° 0.2 mm 1 mps 753 mmHg 92%
23:00 +2°C° 0.2 mm 1 mps 753 mmHg 95%

25 April, Sunday

Time Temperature Precipitation Wind Pressure Humidity
00:00 +1°C° 0.2 mm 1 mps 753 mmHg 98%
01:00 +1°C° 0.2 mm 1 mps 753 mmHg 98%
02:00 +1°C° 0.2 mm 1 mps 752 mmHg 98%
03:00 +1°C° 0.2 mm 1 mps 752 mmHg 98%
04:00 +1°C° 0.1 mm 1 mps 752 mmHg 98%
05:00 0°C° 0.1 mm 0 mps 752 mmHg 98%
06:00 0°C° 0.1 mm 0 mps 752 mmHg 98%
07:00 +1°C° 0 mm 0 mps 752 mmHg 95%
08:00 +1°C° 0 mm 0 mps 752 mmHg 93%
09:00 +2°C° 0 mm 0 mps 752 mmHg 90%
10:00 +2°C° 0 mm 0 mps 752 mmHg 86%
11:00 +4°C° 0 mm 1 mps 752 mmHg 81%
12:00 +4°C° 0 mm 1 mps 752 mmHg 77%
13:00 +5°C° 0 mm 1 mps 751 mmHg 74%
14:00 +6°C° 0 mm 1 mps 751 mmHg 71%
15:00 +6°C° 0 mm 1 mps 751 mmHg 68%
16:00 +6°C° 0 mm 1 mps 751 mmHg 70%
17:00 +6°C° 0 mm 1 mps 751 mmHg 72%
18:00 +6°C° 0 mm 1 mps 751 mmHg 75%
19:00 +4°C° 0 mm 1 mps 751 mmHg 77%
20:00 +3°C° 0 mm 1 mps 751 mmHg 79%
21:00 +2°C° 0 mm 1 mps 751 mmHg 81%
22:00 +2°C° 0 mm 1 mps 751 mmHg 82%
23:00 +1°C° 0 mm 1 mps 751 mmHg 83%
Show more

We Need Your Consent

Meteoprog and our Service Providers may store and access personal data such as cookies, device identifiers or other similar technologies on your device and process such data to personalise content and ads, as well as provide social media features and to analyse the traffic.

  • Store and/or access information on your device

    Cookies, device identifiers or other information can be stored or accessed on your device for the purposes indicated above.

  • Personalised ads and content, ad and content measurement, audience insights, and products development

    Ads and content can be personalised based on a profile. More data can be added to better personalise ads and content. Ad and content performance can be measured. Insights about the audience who saw the ads and content can be derived. Such data can be used to develop or improve user’s experience, systems and software.

By clicking ‘I Agree’ you will allow the use of indicated cookies, device identifiers, web beacons or other similar technologies. Your settings can be changed in the browser on your device.

For certain purposes, legitimate interests may be relied on, rather than consent. You can read more about this in our Privacy and Cookie Policy.